Time[GMT],current_u[cm/s](10m),current_v[cm/s](10m),current_u[cm/s](14m),current_v[cm/s](14m),current_u[cm/s](18m),current_v[cm/s](18m),current_u[cm/s](22m),current_v[cm/s](22m),current_u[cm/s](26m),current_v[cm/s](26m),current_u[cm/s](30m),current_v[cm/s](30m),current_u[cm/s](34m),current_v[cm/s](34m),current_u[cm/s](38m),current_v[cm/s](38m),current_u[cm/s](42m),current_v[cm/s](42m),current_u[cm/s](46m),current_v[cm/s](46m),current_u[cm/s](50m),current_v[cm/s](50m),current_u[cm/s](54m),current_v[cm/s](54m)
2018-10-01 16:00,-14.04,2.12,-15.30,3.74,-17.54,-1.00,-10.56,-12.69,-5.20,-13.73,0.02,-11.59,2.38,-11.89,5.25,-9.87,6.89,-9.43,7.04,-8.04,6.52,-7.67,4.92,-9.03
2018-10-01 17:00,-6.13,10.05,-5.44,12.10,-8.99,8.76,-8.34,-4.42,-6.76,-7.21,-1.04,-6.50,3.63,-8.45,7.29,-9.74,9.84,-11.12,11.44,-9.76,11.51,-10.05,9.33,-10.01
2018-10-01 18:00,-0.89,3.28,-1.67,5.04,-10.75,0.31,-14.80,-3.89,-11.64,-5.21,-9.67,-6.75,-4.87,-9.60,0.86,-12.40,2.76,-15.21,2.11,-15.90,4.93,-17.11,4.54,-17.21
2018-10-01 19:00,1.19,-1.34,0.71,0.81,-3.96,3.18,-6.60,1.43,-5.93,-1.81,-6.72,-6.58,-4.63,-10.88,-3.51,-13.48,-6.29,-13.92,-7.32,-13.16,-5.96,-13.62,-5.44,-12.86
2018-10-01 20:00,8.90,-8.79,10.53,-7.93,7.19,-3.24,4.99,-3.52,1.14,-7.67,-0.85,-12.97,-0.24,-14.46,-2.44,-14.75,-5.05,-14.31,-6.97,-14.10,-4.06,-14.14,-1.11,-14.70
2018-10-01 21:00,7.44,-17.98,9.21,-18.02,12.32,-13.04,11.01,-8.94,2.73,-9.73,-2.98,-9.30,-4.30,-10.17,-6.61,-9.66,-7.33,-10.47,-6.20,-11.20,-5.10,-12.56,-5.61,-11.46
2018-10-01 22:00,1.99,-20.80,4.13,-21.05,8.55,-16.34,8.25,-11.76,1.00,-10.61,-5.14,-8.22,-7.08,-6.78,-8.18,-6.14,-8.53,-7.17,-10.29,-7.54,-10.53,-6.26,-9.59,-3.62
2018-10-01 23:00,-0.68,-23.59,-2.36,-23.11,6.89,-22.07,11.02,-15.88,6.41,-13.39,0.44,-9.31,-2.17,-6.18,-3.76,-4.12,-3.53,-4.58,-3.04,-3.72,-1.62,-0.13,0.37,2.07
2018-10-02 00:00,-0.53,-22.21,-1.14,-22.27,3.73,-21.88,9.97,-18.54,6.91,-15.64,1.72,-10.20,0.10,-6.50,-0.60,-5.44,-0.29,-5.46,-0.13,-2.21,2.96,-0.24,2.05,0.86
2018-10-02 01:00,-8.59,-7.70,-9.41,-7.72,-9.18,-8.59,-3.27,-10.52,6.11,-11.51,9.76,-10.83,7.42,-7.53,8.68,-2.63,9.29,-1.02,9.35,-1.62,9.64,-0.40,9.57,2.17
2018-10-02 02:00,-16.07,-6.10,-17.82,-4.60,-18.69,-3.28,-11.15,-4.36,2.07,-8.45,7.12,-11.03,4.37,-8.14,7.38,-4.33,9.45,-3.56,8.41,-2.39,6.60,-1.43,5.52,0.66
2018-10-02 03:00,-14.92,1.15,-15.05,2.05,-14.74,2.03,-10.93,-0.57,4.33,-9.91,7.84,-11.77,4.57,-9.64,6.96,-5.06,9.84,-4.60,9.40,-3.37,8.52,-4.33,7.24,-3.02
2018-10-02 04:00,-8.98,16.01,-9.39,16.01,-9.71,16.02,-7.78,11.57,2.59,-2.30,6.83,-5.72,9.72,-3.39,11.54,-2.07,7.64,-3.74,5.71,-4.67,6.07,-1.37,5.20,2.23
2018-10-02 05:00,-11.27,16.43,-12.24,16.58,-12.27,14.40,-8.96,3.28,-4.24,-5.39,-4.36,-3.04,-1.46,-2.26,0.65,-3.55,-2.78,-3.13,-4.63,-2.80,-3.15,-2.92,0.57,1.71
2018-10-02 06:00,-3.84,10.77,-8.61,9.28,-9.33,6.18,-7.76,-8.10,-9.09,-10.84,-10.45,-9.65,-6.71,-8.54,-2.41,-9.87,-4.84,-10.84,-5.90,-10.39,-4.71,-10.18,-1.54,-7.35
2018-10-02 07:00,4.40,14.03,0.65,13.33,-1.77,10.40,-8.61,-2.63,-12.27,-6.73,-10.46,-5.00,-7.24,-3.09,-4.43,-4.30,-8.74,-3.70,-9.65,-6.85,-9.93,-7.34,-8.57,-4.70
2018-10-02 08:00,6.72,1.19,3.18,1.27,0.82,0.43,-7.44,-8.12,-14.28,-11.93,-13.83,-7.87,-10.39,-4.87,-7.23,-6.61,-7.98,-8.06,-10.05,-12.66,-11.28,-13.09,-10.69,-12.21
2018-10-02 09:00,20.90,0.46,18.81,2.07,11.94,-0.09,0.38,-4.87,-1.10,-2.06,3.68,0.58,3.52,1.16,2.64,-0.95,1.94,-5.28,1.26,-5.05,0.29,-1.47,1.01,3.17
2018-10-02 10:00,17.60,-14.93,12.91,-13.30,1.61,-13.65,-3.71,-10.43,-0.30,-7.33,1.54,-7.25,0.78,-7.87,-1.49,-9.83,-2.74,-9.03,-3.52,-3.85,-3.01,-1.12,-1.11,-0.51
2018-10-02 11:00,18.14,-20.79,15.62,-17.95,3.12,-13.87,-0.79,-8.19,2.89,-6.47,-0.43,-6.85,-5.85,-7.48,-7.80,-8.32,-5.42,-6.02,-3.02,-1.85,-3.96,1.62,-5.51,2.76
2018-10-02 12:00,6.18,-30.96,7.31,-29.41,0.55,-24.30,-2.84,-15.58,1.27,-13.54,-1.49,-11.38,-7.52,-9.38,-9.54,-10.34,-7.12,-8.55,-4.71,-4.79,-5.48,-1.58,-7.77,-0.75
2018-10-02 13:00,-6.83,-25.35,-5.58,-26.16,-4.89,-25.25,-6.58,-19.38,-6.56,-13.68,-2.17,-11.15,3.77,-12.45,3.64,-10.41,0.40,-7.25,1.40,-6.35,3.12,-4.65,2.97,-1.79
2018-10-02 14:00,-3.59,-13.19,-3.23,-14.13,-2.68,-15.02,-0.45,-9.86,3.22,-3.48,9.22,-1.55,15.02,-5.37,15.28,-4.06,12.75,0.33,13.81,-0.52,15.44,-0.39,15.10,0.45
2018-10-02 15:00,-17.09,-1.92,-16.25,-1.59,-15.85,-1.90,-13.41,-1.75,-6.34,1.60,2.95,2.87,9.23,3.01,13.29,-2.42,14.36,-3.69,14.03,-0.56,13.01,0.92,14.28,0.43
2018-10-02 16:00,-22.56,-1.22,-21.94,-0.84,-20.46,-2.10,-16.51,-4.45,-8.63,-2.95,-1.86,-1.95,7.07,-4.72,11.08,-9.96,12.89,-12.06,14.45,-11.33,14.18,-12.64,11.70,-9.58
2018-10-02 17:00,-15.14,10.83,-14.71,11.15,-14.11,10.07,-11.19,6.92,-3.14,4.33,4.65,1.98,9.96,-3.53,12.57,-8.21,11.49,-11.09,12.43,-11.15,15.42,-11.07,15.27,-8.62
2018-10-02 18:00,-14.68,16.03,-12.14,15.06,-9.45,12.37,-6.60,7.96,-0.74,3.12,6.34,-3.16,11.86,-10.16,11.67,-15.60,10.17,-15.80,6.02,-13.08,4.80,-11.65,7.01,-10.23
2018-10-02 19:00,3.32,11.88,5.97,10.52,6.01,3.07,4.18,-4.36,6.07,-10.59,10.77,-13.04,2.89,-15.69,-6.09,-15.42,-8.68,-14.67,-7.78,-16.08,-7.13,-16.94,-7.76,-13.07
2018-10-02 20:00,5.58,1.20,5.90,2.32,3.71,-1.07,-0.23,-2.24,-0.81,-4.67,2.23,-9.03,-2.32,-9.43,-6.79,-7.84,-8.16,-6.24,-8.29,-5.35,-8.66,-5.13,-10.23,-3.17
2018-10-02 21:00,7.15,-7.29,7.60,-7.06,7.40,-9.40,3.47,-13.25,0.59,-16.00,-4.16,-16.45,-7.24,-15.00,-7.70,-12.54,-8.26,-10.83,-9.34,-10.29,-10.12,-6.25,-10.03,-3.53
2018-10-02 22:00,10.31,-13.27,11.91,-14.19,7.44,-17.98,1.62,-21.73,-4.36,-21.48,-10.86,-18.47,-14.27,-15.45,-12.57,-14.06,-11.78,-13.54,-11.71,-10.72,-10.95,-4.72,-9.55,-2.99
2018-10-02 23:00,17.75,-17.79,19.11,-19.39,11.53,-22.37,5.48,-21.83,-0.65,-18.30,-5.05,-15.45,-4.74,-12.77,-3.04,-10.24,-1.26,-6.45,-0.49,-3.55,1.52,-2.18,3.80,-1.05
2018-10-03 00:00,9.51,-22.19,12.36,-22.77,7.47,-22.32,1.16,-19.26,-2.21,-16.75,-2.52,-12.18,-3.52,-6.13,-1.77,-2.65,1.49,-2.08,2.34,-3.30,3.60,-3.38,4.90,-2.82
2018-10-03 01:00,6.57,-25.88,9.44,-26.14,5.46,-22.56,-1.38,-18.29,-4.90,-17.17,-3.32,-13.43,-2.60,-8.78,-0.44,-3.74,4.10,-2.52,5.73,-3.94,6.68,-5.96,7.54,-4.91
2018-10-03 02:00,-5.74,-20.19,-2.94,-18.30,-1.56,-19.17,-1.99,-15.66,-4.69,-12.56,-7.60,-12.51,-5.90,-11.53,-1.59,-5.61,3.87,-0.92,6.40,-2.21,6.77,-5.11,7.01,-6.40
2018-10-03 03:00,-14.27,-12.76,-13.11,-14.00,-11.20,-14.93,-7.64,-13.14,-6.06,-10.54,-8.79,-8.90,-7.21,-7.44,-3.01,-5.37,2.44,-2.14,9.52,-0.74,11.70,-1.51,10.46,-1.53
2018-10-03 04:00,-18.29,-5.14,-16.48,-4.55,-13.34,-5.46,-8.16,-7.38,-6.96,-7.99,-8.22,-5.22,-4.76,-5.01,-0.71,-6.20,2.31,-4.35,9.51,-4.17,13.72,-3.24,15.00,-4.14
2018-10-03 05:00,-21.13,-1.14,-19.92,-1.02,-16.87,-1.96,-13.06,-6.11,-8.61,-8.02,-5.10,-6.45,-2.85,-5.95,-2.06,-8.12,0.39,-7.97,4.89,-8.52,9.02,-8.86,10.28,-7.38
2018-10-03 06:00,-19.45,-0.48,-17.10,0.05,-13.01,-0.92,-9.53,-4.23,-6.79,-5.56,-2.78,-6.97,-4.45,-8.45,-4.19,-8.28,-3.08,-9.32,0.94,-10.00,3.96,-9.70,4.51,-7.90
2018-10-03 07:00,-17.21,-2.26,-12.77,-2.20,-9.10,-6.60,-6.32,-6.89,-1.62,-5.51,-2.12,-7.10,-7.33,-8.92,-10.27,-9.92,-7.40,-10.18,-5.63,-11.77,-7.07,-12.58,-7.36,-11.10
2018-10-03 08:00,-14.07,-2.76,-11.50,-2.69,-9.69,-7.07,-8.10,-12.96,0.22,-15.79,4.31,-16.75,2.38,-16.86,-3.14,-19.08,-6.36,-21.71,-4.20,-22.06,-3.65,-24.08,-5.13,-25.52
2018-10-03 09:00,-0.11,-0.75,-0.27,-3.60,-1.12,-5.07,1.14,-6.53,2.39,-7.33,0.92,-6.48,-0.38,-4.35,-2.63,-5.99,-5.87,-8.94,-5.83,-10.27,-3.33,-9.91,-5.73,-10.25
2018-10-03 10:00,7.06,-18.09,0.74,-17.72,-3.34,-17.58,-2.95,-18.61,-3.47,-17.09,-5.54,-16.31,-8.62,-17.97,-6.38,-18.19,-2.76,-17.01,-5.52,-15.99,-10.73,-12.84,-13.59,-7.60
2018-10-03 11:00,10.33,-22.17,4.85,-20.65,1.47,-17.73,-0.16,-17.44,1.59,-17.80,-1.75,-16.94,-1.77,-14.15,-0.85,-12.97,-5.67,-10.85,-10.54,-7.40,-12.52,-3.90,-11.85,-0.61
2018-10-03 12:00,3.42,-21.14,0.31,-20.73,-1.52,-21.23,-5.87,-19.71,-9.74,-17.65,-10.01,-17.41,-9.75,-15.68,-8.33,-14.05,-12.15,-12.18,-14.86,-9.81,-13.50,-4.47,-9.46,-0.27
2018-10-03 13:00,7.18,-23.54,8.96,-22.44,6.95,-21.53,4.88,-18.47,3.42,-16.89,4.44,-12.99,4.82,-10.20,2.80,-8.46,-1.34,-6.16,-1.32,-2.01,0.42,1.15,1.60,2.50
2018-10-03 14:00,7.24,-13.79,9.40,-14.87,9.75,-16.94,5.06,-14.90,4.31,-10.23,5.02,-6.31,8.46,-3.72,4.08,-2.84,1.29,-1.31,3.23,2.63,7.18,5.25,7.04,7.29
2018-10-03 15:00,1.06,-12.76,3.97,-13.95,1.09,-18.25,-1.96,-16.17,0.52,-12.29,2.01,-8.99,6.15,-5.90,9.91,-4.47,5.19,-2.74,2.13,0.16,3.82,3.10,6.99,3.65
2018-10-03 16:00,-12.01,-8.83,-8.11,-7.57,-5.99,-8.14,-4.29,-14.42,-6.27,-14.02,-1.11,-10.86,1.10,-8.30,5.99,-6.46,10.34,-4.15,8.26,-4.50,5.82,-2.78,6.11,-0.01
2018-10-03 17:00,-3.94,3.08,0.05,-0.19,-0.01,-8.39,-6.08,-10.86,-5.64,-7.12,0.53,-5.04,5.96,-3.26,9.30,-2.98,16.10,-2.08,15.45,0.34,13.34,1.63,13.59,3.36
2018-10-03 18:00,-2.26,1.46,-1.03,-5.77,-7.17,-8.36,-9.22,-4.97,-6.57,-4.05,-5.86,-3.24,-4.05,-4.20,-1.30,-3.25,2.99,-5.72,6.62,-6.50,9.62,-2.27,9.28,3.23
2018-10-03 19:00,-0.46,-0.23,-0.32,-7.65,-7.08,-10.61,-11.11,-7.97,-8.48,-5.81,-6.26,-3.66,-3.58,-3.24,-0.10,-6.55,1.96,-11.49,4.46,-10.40,7.78,-7.33,9.61,-4.14
2018-10-03 20:00,0.58,-7.92,-3.47,-13.26,-8.93,-10.28,-10.41,-5.19,-9.04,-2.96,-9.32,-2.31,-9.08,-4.73,-8.17,-6.97,-5.11,-9.46,-2.02,-11.32,0.17,-11.76,1.97,-9.21
2018-10-03 21:00,4.27,-12.00,0.64,-17.74,-4.77,-13.41,-3.94,-8.83,-2.51,-7.20,-1.08,-4.44,-0.42,-7.26,-0.29,-9.30,-1.41,-10.53,-3.97,-12.15,-2.71,-13.37,-1.37,-12.18
2018-10-03 22:00,12.60,-17.52,6.99,-17.07,3.21,-10.74,4.22,-7.98,7.96,-6.86,6.56,-8.17,2.85,-11.35,-2.24,-11.27,-5.20,-7.62,-6.48,-6.31,-6.95,-6.12,-4.78,-6.47
2018-10-03 23:00,3.59,-22.13,1.37,-21.59,-1.63,-12.77,-4.12,-10.43,-0.11,-12.25,1.90,-13.57,-4.57,-16.46,-7.19,-15.20,-8.63,-12.17,-8.22,-7.92,-8.54,-4.06,-10.36,-4.97
2018-10-04 00:00,13.91,-23.90,12.50,-17.55,9.37,-13.63,8.93,-15.82,12.36,-13.96,4.55,-14.93,-1.53,-14.29,-1.53,-11.60,-3.91,-7.37,-3.43,-2.27,-5.44,-2.09,-7.48,-4.51
2018-10-04 01:00,12.59,-25.92,12.07,-20.15,5.71,-20.00,6.36,-21.28,3.09,-21.43,-6.30,-20.03,-9.60,-15.85,-5.74,-12.11,-5.85,-7.48,-5.25,-2.04,-5.94,2.44,-5.75,4.04
2018-10-04 02:00,11.87,-24.04,12.09,-18.70,9.24,-14.29,6.79,-14.43,5.25,-15.99,1.56,-14.60,-1.08,-13.65,-3.03,-7.96,1.09,-3.64,4.90,1.43,4.66,4.99,1.01,8.56
2018-10-04 03:00,4.15,-23.43,5.16,-17.98,2.18,-15.36,0.98,-13.61,-1.50,-14.39,-3.14,-15.24,-5.10,-12.56,-5.89,-8.11,-3.19,-4.69,-0.10,-2.31,-0.12,2.35,-1.12,6.84
2018-10-04 04:00,1.72,-14.45,-1.46,-12.62,0.21,-7.30,-3.69,-5.14,-3.16,-5.93,-2.59,-5.36,-1.91,-5.59,0.86,-2.05,3.46,3.31,8.53,7.17,8.76,8.99,5.32,10.24
2018-10-04 05:00,3.73,-10.39,-4.95,-8.90,-3.24,-6.05,0.57,-3.26,0.37,-4.46,-0.32,-6.51,-0.62,-5.76,1.46,-5.41,1.87,-1.15,5.16,3.15,10.27,4.53,8.65,5.96
2018-10-04 06:00,-3.93,-3.86,-10.41,-2.50,-9.43,-0.37,-4.78,1.20,-4.30,0.19,-2.80,-0.76,-1.57,-1.46,0.71,-3.02,4.56,-3.85,5.06,1.57,7.54,4.31,7.82,3.25
2018-10-04 07:00,-6.41,0.34,-6.09,4.16,-3.37,4.06,-4.48,2.42,-5.71,3.12,-7.69,2.38,-5.59,0.36,-4.13,-1.22,-5.25,0.65,-5.40,3.51,-3.36,4.38,-3.00,3.44
2018-10-04 08:00,-1.85,4.16,-2.52,7.81,0.23,5.66,-0.95,2.75,-0.81,1.85,-3.18,0.28,-5.33,-0.20,-5.09,-2.62,-4.61,0.21,-5.52,2.03,-4.02,1.09,-2.20,-0.28
2018-10-04 09:00,4.12,-2.62,0.88,-0.59,-0.20,-2.33,-2.08,-4.19,-2.67,-6.21,-4.69,-7.58,-3.79,-7.44,-4.38,-7.19,-3.14,-8.72,-1.56,-7.67,0.60,-7.61,0.88,-8.26
2018-10-04 10:00,7.39,-8.57,2.60,-8.10,-0.25,-10.22,-2.71,-12.23,-4.38,-12.57,-4.06,-11.45,-4.76,-11.54,-4.43,-13.52,-3.77,-13.65,-4.20,-11.70,-5.31,-11.79,-7.80,-11.01
2018-10-04 11:00,11.27,-6.07,7.84,-6.79,8.44,-6.32,6.60,-6.40,2.64,-7.47,-0.37,-7.45,-2.61,-6.82,-2.09,-9.16,-1.71,-8.64,-2.48,-6.16,-3.05,-4.45,-7.54,-3.90
2018-10-04 12:00,8.37,-10.69,5.20,-9.68,0.29,-10.28,-4.01,-10.09,-6.00,-10.01,-5.44,-8.62,-7.17,-7.22,-8.80,-8.07,-8.83,-7.97,-9.25,-7.16,-11.72,-6.48,-13.03,-2.38
2018-10-04 13:00,21.19,-19.04,15.14,-18.49,4.48,-15.05,1.23,-12.62,4.36,-8.87,1.31,-5.24,-0.78,-2.49,-1.14,-1.14,-2.44,0.59,-2.95,0.96,-3.61,3.79,-1.02,3.77
2018-10-04 14:00,18.95,-26.48,9.89,-27.06,5.04,-21.74,2.90,-17.65,4.65,-14.18,2.04,-10.64,0.51,-8.04,-1.75,-5.03,-4.49,-2.56,-5.78,1.45,-4.62,4.45,-3.19,4.53
2018-10-04 15:00,15.19,-13.30,5.16,-16.84,-3.12,-13.79,-5.99,-13.11,-4.41,-10.51,0.95,-10.41,2.47,-7.62,0.49,-4.11,-1.44,0.34,-1.75,6.47,-1.16,10.05,-0.90,10.63
2018-10-04 16:00,19.95,-7.15,6.31,-6.89,-2.14,-5.13,-3.18,-3.55,2.96,-4.07,8.19,-4.63,10.77,-1.55,8.82,3.00,6.57,8.30,6.14,11.81,5.94,14.45,6.06,15.93
2018-10-04 17:00,7.84,-9.48,-4.49,-9.08,-14.85,-6.39,-17.24,-5.58,-13.91,-3.34,-4.89,-6.81,0.26,-9.04,3.14,-7.02,2.55,-2.94,2.88,2.75,4.06,6.07,4.82,7.10
2018-10-04 18:00,-0.71,1.88,-14.63,1.23,-21.06,1.67,-20.62,3.86,-17.59,9.13,-12.49,5.23,-6.08,-0.50,-1.35,-1.92,0.64,0.69,2.25,7.03,4.99,10.67,6.21,10.38
2018-10-04 19:00,-6.87,-1.03,-15.41,0.30,-17.59,1.47,-16.54,5.27,-11.06,7.99,-8.85,0.93,-3.14,-4.89,1.90,-5.91,1.64,-3.39,2.54,1.72,5.18,3.06,6.85,2.26
2018-10-04 20:00,-12.52,6.46,-13.68,11.95,-13.74,14.83,-9.29,18.31,-9.10,12.98,-10.20,5.95,-9.89,2.10,-4.88,0.03,-2.97,1.79,-2.95,4.80,-0.78,6.73,2.57,5.46
2018-10-04 21:00,-6.34,8.54,-7.27,15.44,-5.66,18.67,-3.02,18.86,-3.27,11.75,-6.46,7.06,-6.32,4.61,-3.41,2.29,-2.34,4.44,-3.34,7.39,-1.24,6.91,2.50,5.33
2018-10-04 22:00,-6.56,-0.63,-9.61,5.28,-6.56,8.59,-4.58,7.36,-6.92,-0.83,-10.75,-2.38,-11.29,-4.60,-8.97,-6.67,-9.37,-4.81,-10.66,-3.08,-9.35,-4.90,-6.94,-9.23
2018-10-04 23:00,4.87,-6.14,-1.91,-2.90,0.63,1.10,1.40,0.17,-0.83,-6.13,-4.26,-9.54,-3.30,-10.42,-3.45,-9.11,-2.86,-6.68,-2.29,-4.97,-2.86,-5.54,-5.72,-6.83
2018-10-05 00:00,,,,,,,,,,,,,,,,,,,,,,,,
2018-10-05 01:00,9.11,-5.73,9.58,-3.63,9.91,-4.47,7.79,-8.15,-0.48,-8.21,-4.44,-7.72,-3.37,-7.85,-2.92,-4.52,-1.69,-1.80,1.72,0.15,1.00,0.89,-3.89,-0.95
2018-10-05 02:00,6.97,-17.38,7.70,-15.12,8.82,-15.02,3.14,-16.24,-1.41,-12.81,-3.57,-9.04,-1.87,-9.20,-2.78,-6.97,-2.66,-3.20,-0.99,-1.72,0.25,-0.14,-0.90,0.27
2018-10-05 03:00,3.47,-14.39,7.80,-13.54,8.14,-13.65,5.39,-14.60,-0.04,-10.99,0.62,-5.74,-0.32,-2.26,0.12,1.48,1.91,4.04,3.68,6.69,4.43,9.69,7.07,8.74
2018-10-05 04:00,-2.25,-15.83,5.04,-12.93,8.61,-13.11,4.82,-14.03,1.46,-8.10,1.43,-1.48,0.74,3.00,1.90,6.00,2.76,6.65,-0.24,10.09,-4.74,11.05,-2.54,11.33
2018-10-05 05:00,-10.47,-14.94,-5.99,-9.28,2.96,-6.35,4.15,-9.24,1.87,-4.26,4.18,2.16,3.70,5.87,3.49,7.78,0.52,11.12,-1.19,14.39,0.08,13.90,-1.64,11.06
2018-10-05 06:00,-14.56,-5.17,-15.12,-2.32,-5.93,0.47,-0.95,-1.08,-3.15,-4.06,0.19,-1.09,4.39,2.53,4.98,4.97,3.75,7.23,1.14,9.21,4.57,11.07,7.70,12.54
2018-10-05 07:00,-23.69,-4.32,-21.95,-2.71,-17.11,-2.23,-12.00,-3.13,-13.09,-5.60,-14.85,-5.25,-5.62,-4.52,0.37,-1.76,0.54,-0.48,0.96,1.81,2.36,4.68,3.92,4.27
2018-10-05 08:00,-19.51,3.23,-13.89,4.64,-7.24,3.02,-9.17,1.36,-11.95,3.20,-5.97,1.39,1.56,-0.41,4.14,0.39,2.78,1.99,2.63,3.30,4.79,6.06,4.72,7.07
2018-10-05 09:00,-22.04,2.23,-14.50,4.99,-9.55,4.67,-10.84,5.26,-8.29,7.29,-7.42,6.39,-2.82,4.31,1.86,3.09,1.21,3.95,0.67,4.43,2.24,4.75,4.23,4.66
2018-10-05 10:00,-21.80,-8.26,-13.41,-2.89,-9.67,-1.78,-9.74,0.79,-4.80,1.29,-4.75,-1.59,-2.97,-5.88,-0.67,-8.26,1.50,-7.88,2.70,-6.94,2.92,-6.98,3.25,-8.96
2018-10-05 11:00,-16.98,-18.05,-9.61,-8.91,-6.93,-1.56,-0.68,0.23,0.70,-1.05,-2.65,-4.76,-2.78,-8.52,-2.66,-9.73,-0.58,-9.37,0.93,-8.04,0.56,-7.82,2.05,-9.91
2018-10-05 12:00,-23.20,-21.90,-18.63,-18.49,-8.55,-12.46,-1.46,-6.09,1.55,-6.52,-2.47,-9.26,-4.44,-11.97,-5.79,-12.33,-4.44,-11.56,-1.94,-10.47,-1.46,-10.34,-0.73,-11.90
2018-10-05 13:00,-19.70,-20.65,-14.55,-17.08,-5.13,-12.47,7.22,-7.58,10.61,-8.22,5.03,-9.83,3.96,-10.84,3.86,-10.46,3.74,-8.11,2.42,-6.29,1.05,-6.97,-1.64,-6.97
2018-10-05 14:00,-19.67,-23.85,-16.67,-21.90,-10.61,-20.57,0.14,-17.78,12.89,-14.75,11.87,-13.68,8.44,-14.40,8.33,-14.74,8.32,-13.19,8.09,-12.32,5.19,-11.96,1.08,-11.31
2018-10-05 15:00,-13.94,-34.32,-6.76,-31.76,0.57,-28.23,10.57,-24.60,18.50,-21.73,13.75,-20.63,12.08,-19.42,12.62,-17.21,10.70,-14.31,6.16,-10.15,1.54,-8.39,-1.22,-5.09
2018-10-05 16:00,-14.58,-32.73,-9.26,-31.71,-2.72,-28.70,7.30,-26.31,19.04,-23.35,17.81,-19.95,14.71,-19.96,14.42,-16.20,13.05,-10.36,9.57,-4.77,6.06,-0.95,4.29,1.37
2018-10-05 17:00,-16.58,-18.77,-10.08,-18.67,-4.34,-18.47,4.69,-18.52,14.31,-15.40,12.42,-9.18,11.32,-8.55,10.26,-5.00,8.59,2.73,4.91,9.82,-0.61,12.99,-0.65,12.77
2018-10-05 18:00,-13.65,-14.66,-7.96,-15.41,-3.24,-17.55,0.17,-18.29,6.34,-20.04,14.30,-20.38,12.84,-14.97,10.97,-13.40,11.53,-10.87,12.21,-3.02,11.91,3.84,8.29,5.76
2018-10-05 19:00,-21.08,1.36,-19.10,0.54,-17.22,-0.30,-14.59,-3.11,-10.92,-6.36,-6.20,-9.65,2.00,-15.10,4.53,-12.55,2.96,-10.59,6.25,-10.12,8.37,-6.44,10.16,-0.05
2018-10-05 20:00,-9.63,-1.56,-9.92,-3.92,-9.41,-6.58,-9.53,-8.06,-9.35,-9.88,-7.31,-12.85,-0.81,-18.86,3.39,-16.80,3.68,-12.89,4.29,-11.69,7.20,-11.73,8.52,-5.47
2018-10-05 21:00,-10.34,1.87,-12.61,1.05,-13.84,-0.52,-14.19,-2.69,-16.11,-6.32,-13.91,-11.42,-7.96,-13.13,-5.62,-8.35,-4.36,-8.01,-2.08,-9.57,-2.81,-2.62,-4.40,1.71
2018-10-05 22:00,-0.58,-1.30,-5.67,-4.33,-8.74,-5.98,-9.59,-8.60,-8.66,-11.66,-9.65,-9.13,-10.31,-4.02,-10.71,-0.61,-9.28,-2.09,-6.80,-5.88,-4.75,-10.81,-2.48,-8.85
2018-10-05 23:00,2.66,-8.71,-2.45,-8.95,-6.33,-10.31,-8.54,-11.73,-11.66,-12.05,-11.41,-12.61,-13.16,-9.97,-14.12,-6.40,-13.11,-5.92,-11.92,-9.95,-7.88,-13.42,-4.46,-13.42
2018-10-06 00:00,4.11,-14.84,0.93,-13.42,-1.16,-12.22,-4.37,-10.29,-7.93,-10.53,-11.61,-8.41,-14.39,-3.47,-13.89,-1.88,-13.32,-3.59,-14.51,-6.50,-12.96,-7.23,-9.65,-6.85
2018-10-06 01:00,2.57,-19.50,5.60,-14.23,1.94,-11.80,-1.92,-15.54,-4.47,-14.15,-5.97,-7.82,-5.64,-4.83,-3.40,-3.51,-0.29,-2.77,-0.16,-4.39,-2.67,-6.21,-4.90,-9.09
2018-10-06 02:00,,,,,,,,,,,,,,,,,,,,,,,,
2018-10-06 03:00,10.22,-26.76,13.01,-22.49,14.38,-19.12,9.04,-16.62,3.03,-10.47,3.81,-5.29,-0.02,-3.01,-3.41,-4.65,-4.80,-2.54,-3.58,-0.55,-2.57,2.62,-3.77,3.23
2018-10-06 04:00,11.57,-27.12,14.69,-25.66,15.01,-20.70,9.91,-17.52,5.99,-9.16,2.51,-5.85,-1.91,-4.45,-2.56,-3.18,-1.19,-1.36,-1.62,2.15,-2.20,3.55,-2.52,3.98
2018-10-06 05:00,6.29,-22.54,7.14,-16.10,6.97,-14.69,6.98,-11.27,5.10,-4.32,2.30,-0.83,-0.88,1.73,1.13,5.79,2.62,7.96,-1.28,8.98,-6.75,9.67,-8.62,12.38
2018-10-06 06:00,-2.35,-23.53,-2.08,-18.38,-3.17,-13.59,-4.26,-12.23,0.88,-12.09,5.92,-5.03,8.51,-1.22,6.16,1.35,7.02,4.69,6.56,8.71,1.41,10.12,1.28,10.60
2018-10-06 07:00,-10.31,-19.77,-14.44,-12.49,-13.22,-9.37,-9.18,-7.45,-8.68,-7.00,-6.00,-5.04,-0.06,-0.53,3.27,1.30,3.10,3.11,4.19,5.58,4.36,6.87,4.81,6.37
2018-10-06 08:00,-14.78,-15.07,-15.42,-9.65,-15.17,-4.82,-11.24,-3.24,-6.42,-1.94,-4.77,-1.91,-1.31,0.27,3.08,3.94,3.44,5.28,4.45,5.76,6.75,4.93,5.67,3.19
2018-10-06 09:00,-18.12,-4.99,-17.53,-0.28,-16.18,3.92,-12.57,5.52,-6.69,3.68,-4.71,4.01,-2.13,3.67,4.04,3.47,2.83,1.80,4.04,1.92,6.12,0.72,7.44,-0.69
2018-10-06 10:00,-18.02,-6.93,-17.29,-4.25,-16.10,-0.61,-10.75,3.00,-5.48,-0.03,-3.41,2.29,2.70,2.28,2.22,0.60,-0.42,-0.74,1.14,-1.56,2.37,-3.40,0.62,-6.15
2018-10-06 11:00,-11.22,-6.03,-8.79,-0.82,-6.32,-0.77,-10.61,0.55,-12.59,4.06,-9.62,4.55,-6.66,0.90,-4.76,-3.46,-7.98,-4.22,-7.24,-3.09,-5.61,-3.79,-5.00,-5.28
2018-10-06 12:00,3.23,-10.83,6.09,-7.99,2.90,-8.44,-0.02,-1.46,0.76,3.73,1.89,-0.11,0.02,-3.52,-4.19,-2.89,-3.04,-3.31,0.41,-6.52,2.91,-9.26,2.09,-10.83
2018-10-06 13:00,-1.53,-12.74,3.94,-11.16,6.52,-14.19,4.26,-12.73,5.29,-6.55,10.10,-1.73,9.20,-6.84,3.02,-8.51,-1.00,-7.42,0.08,-6.81,0.52,-5.76,-1.40,-7.11
2018-10-06 14:00,2.71,-20.40,6.80,-22.51,6.00,-22.62,3.36,-20.12,7.03,-12.60,0.80,-10.66,-6.35,-7.93,-8.77,-8.58,-14.26,-9.34,-18.35,-8.78,-17.32,-5.29,-15.37,-2.91
2018-10-06 15:00,14.01,-21.60,18.82,-22.16,12.65,-21.55,10.11,-19.44,10.05,-16.14,3.39,-12.96,-0.65,-5.66,-3.14,-3.33,-7.37,-4.16,-9.38,-5.54,-6.85,-4.95,-2.60,-1.12
2018-10-06 16:00,18.87,-27.33,19.24,-28.68,12.08,-26.36,8.24,-22.84,6.19,-17.18,-0.13,-12.57,-3.70,-8.56,-7.95,-5.46,-10.29,-3.71,-9.52,-1.95,-7.73,-1.67,-5.06,-1.99
2018-10-06 17:00,17.33,-23.91,19.88,-26.85,15.19,-26.35,11.59,-21.84,9.00,-15.70,7.21,-10.59,2.68,-5.70,-0.63,-2.66,-2.99,-0.81,-3.31,3.46,-1.58,3.92,0.17,5.12
2018-10-06 18:00,13.80,-25.80,12.97,-26.95,9.83,-26.45,9.16,-23.21,6.35,-17.76,2.04,-10.64,-1.81,-7.12,-3.44,-4.14,-2.45,-0.14,-3.24,5.86,-1.95,8.38,0.18,8.54
2018-10-06 19:00,8.00,-20.83,7.77,-22.66,6.61,-21.42,2.67,-19.89,3.13,-15.83,-0.45,-11.00,-0.15,-4.81,-1.85,-1.22,2.04,2.42,3.44,9.52,3.39,10.86,3.82,10.04
2018-10-06 20:00,6.67,-17.05,6.38,-17.13,6.98,-15.52,0.37,-13.26,-3.16,-9.03,-3.28,-4.72,-4.78,0.06,-7.12,1.81,-2.40,3.91,0.38,9.32,4.40,12.48,5.79,14.61
2018-10-06 21:00,-3.69,-11.66,-8.05,-13.15,-10.52,-12.06,-8.16,-11.21,-10.55,-9.27,-12.51,-5.45,-8.60,-5.74,-5.06,-4.68,-7.18,-2.56,-1.85,-0.81,2.83,1.80,8.56,2.83
2018-10-06 22:00,-3.79,-13.97,-9.35,-8.74,-12.47,-9.06,-16.03,-6.60,-17.93,1.58,-15.67,-0.29,-10.61,-4.83,-5.99,-7.73,-5.40,-8.40,-3.59,-6.66,1.88,-5.81,5.05,-5.68
2018-10-06 23:00,-1.10,-18.94,-7.19,-15.20,-10.21,-10.52,-11.58,-4.68,-13.18,-3.35,-15.25,-5.67,-17.58,-5.47,-13.35,-10.02,-7.43,-15.47,-2.80,-14.95,2.14,-14.44,3.27,-15.59
2018-10-07 00:00,1.68,-14.67,-4.04,-11.14,-4.49,-5.25,-5.51,0.07,-6.40,1.07,-6.62,1.11,-5.42,-2.19,-5.66,-7.43,-3.53,-8.41,-2.45,-7.81,-4.01,-8.95,-3.91,-10.07
2018-10-07 01:00,8.77,-21.77,0.86,-17.38,-1.15,-11.08,-3.51,-6.95,-4.05,-5.34,-3.45,-3.73,-4.22,-5.49,-5.91,-11.12,-3.81,-14.29,-6.28,-14.74,-10.05,-15.35,-11.02,-16.75
2018-10-07 02:00,8.42,-21.24,4.74,-18.71,6.86,-12.75,7.35,-6.51,5.70,-3.85,2.06,-2.65,-2.03,-2.83,-6.11,2.29,-8.67,0.66,-11.13,-4.04,-12.50,-8.55,-10.87,-8.84
2018-10-07 03:00,8.89,-26.81,2.09,-23.47,3.20,-18.40,6.17,-13.66,3.88,-11.69,1.97,-8.07,-3.33,-4.94,-4.93,-2.47,-8.34,-4.01,-12.58,-8.26,-15.15,-12.17,-12.72,-10.06
2018-10-07 04:00,,,,,,,,,,,,,,,,,,,,,,,,
2018-10-07 05:00,14.36,-30.20,5.54,-26.68,4.70,-21.62,7.85,-19.11,7.08,-18.18,6.28,-16.74,4.92,-10.17,3.61,-6.48,0.11,-5.77,-3.88,-5.19,-4.20,-2.48,-1.21,-0.12
2018-10-07 06:00,8.66,-15.58,1.66,-12.29,-1.96,-5.40,1.13,-3.42,3.06,-5.60,0.52,-6.90,0.77,-6.32,0.87,-1.32,-0.02,3.52,-3.56,7.43,-2.65,9.44,-0.79,10.97
2018-10-07 07:00,6.81,-16.39,1.95,-13.35,-1.42,-5.87,1.05,-5.83,0.77,-7.46,-2.07,-7.29,-1.78,-6.07,0.26,-2.11,1.08,2.15,-0.82,6.51,0.78,6.32,2.75,5.92
2018-10-07 08:00,10.75,-10.67,3.63,-8.86,-1.56,-1.14,-0.40,-0.83,-1.12,-2.37,-2.42,-1.38,-2.30,-4.14,-1.97,-2.29,3.55,2.20,3.68,6.69,4.82,7.10,5.84,5.61
2018-10-07 09:00,,,,,,,,,,,,,,,,,,,,,,,,
2018-10-07 10:00,7.52,-1.39,1.60,6.34,-2.13,15.17,-3.94,20.38,-5.43,22.05,-8.35,17.53,-10.64,11.01,-10.79,8.90,-8.07,6.11,-4.64,7.97,-1.71,11.35,-0.89,11.36
2018-10-07 11:00,-1.49,-2.16,-5.10,-1.06,-7.52,6.77,-5.79,14.18,-6.13,19.27,-9.71,19.86,-13.20,14.77,-12.23,10.79,-9.74,9.60,-7.51,7.09,-4.05,5.02,-1.49,5.92
2018-10-07 12:00,-4.23,-7.36,-6.25,-6.76,-9.66,-1.05,-7.81,8.98,-4.09,15.16,-4.78,16.94,-9.07,14.02,-12.69,8.28,-9.42,6.88,-7.12,3.36,-3.76,1.26,0.30,-4.17
2018-10-07 13:00,-1.97,-16.48,-4.21,-10.87,0.04,-2.06,2.51,1.82,-0.14,4.73,-7.25,3.84,-9.21,4.97,-6.51,1.87,-4.74,-3.56,-6.10,-5.79,-7.31,-7.46,-7.91,-9.07
2018-10-07 14:00,7.95,-20.64,5.36,-15.64,9.65,-7.34,11.85,-2.08,9.86,0.69,4.06,-0.46,2.26,-0.32,2.56,-0.66,-3.04,-3.72,-6.15,-8.70,-5.05,-12.76,-4.56,-14.18
2018-10-07 15:00,1.98,-23.08,2.75,-15.93,8.81,-6.53,9.78,-0.16,3.29,0.47,-0.16,0.99,-3.03,-0.30,-6.25,-0.65,-6.66,-0.66,-8.73,-1.42,-11.45,-2.47,-13.22,-5.12
2018-10-07 16:00,5.69,-25.29,5.69,-21.87,11.98,-11.79,19.45,-2.62,16.45,1.23,7.95,2.77,4.72,-0.59,1.09,-3.64,-0.14,-2.94,-0.76,-3.31,-0.45,-5.61,-2.16,-8.87
2018-10-07 17:00,11.23,-30.11,13.23,-26.78,22.30,-18.53,24.81,-11.33,15.73,-8.39,10.92,-8.24,1.82,-5.21,-2.59,-3.08,-3.14,-3.33,-5.65,-2.46,-5.73,-2.17,-2.51,-1.82
2018-10-07 18:00,9.25,-22.78,11.01,-21.99,19.28,-14.27,22.44,-12.90,15.71,-12.54,11.25,-8.67,2.98,-3.75,-1.78,0.45,-4.28,4.75,-6.55,7.76,-7.08,11.66,-6.60,14.48
2018-10-07 19:00,,,,,,,,,,,,,,,,,,,,,,,,
2018-10-07 20:00,-3.32,-17.26,-1.81,-17.47,0.97,-15.48,11.22,-13.55,12.14,-12.36,6.76,-11.23,5.07,-8.06,3.65,-3.16,0.50,3.14,-3.17,5.98,-2.37,7.65,1.10,8.58